Location: Unspecified
(0.0000°N, 0.0000°E)
Time: 05:14:58
(UTC+00:00)

METEOR M2 - Pass Details

Date: 09 July 2020
Orbit: 818 x 828 km, 98.5° (Epoch: 13 August)

Event Time Altitude Azimuth Distance (km) Brightness Sun altitude
Exits shadow 19:09:53 21° 99° (E) 1,778 ? -14.9°
Maximum altitude 19:11:15 23° 77° (ENE) 1,683 ? -15.2°
Drops below altitude 10° 19:15:24 10° 26° (NNE) 2,421 ? -16.2°
Sets 19:18:11 0° 12° (NNE) 3,351 ? -16.8°
